• In Deutschland
  • Länderverzeichnis
  • Für 7 Tage
  • Wassertemperatur
  • Satellitenkarten
  • Wetterkarte
  • Widgets
  • user-avatar
    Anmelden

    Stündliche Wetter Pizunda

    Heute, 12 Dezember, Dienstag

    Zeit Temperatur Niederschläge Wind Luftdruck Luftfeuchtigkeit
    00:00 +6°C° 0 mm 5 m/S 770 mmHg 66%
    01:00 +6°C° 0 mm 5 m/S 770 mmHg 65%
    02:00 +7°C° 0 mm 5 m/S 769 mmHg 65%
    03:00 +7°C° 0 mm 5 m/S 769 mmHg 65%
    04:00 +7°C° 0 mm 5 m/S 769 mmHg 64%
    05:00 +7°C° 0 mm 5 m/S 769 mmHg 63%
    06:00 +7°C° 0 mm 5 m/S 769 mmHg 62%
    07:00 +7°C° 0 mm 5 m/S 769 mmHg 62%
    08:00 +8°C° 0 mm 5 m/S 769 mmHg 62%
    09:00 +9°C° 0 mm 5 m/S 769 mmHg 62%
    10:00 +11°C° 0 mm 4 m/S 769 mmHg 62%
    11:00 +13°C° 0 mm 4 m/S 769 mmHg 61%
    12:00 +14°C° 0 mm 4 m/S 769 mmHg 61%
    13:00 +14°C° 0 mm 4 m/S 768 mmHg 64%
    14:00 +14°C° 0 mm 3 m/S 768 mmHg 66%
    15:00 +14°C° 0 mm 3 m/S 768 mmHg 69%
    16:00 +13°C° 0 mm 3 m/S 768 mmHg 66%
    17:00 +11°C° 0 mm 3 m/S 768 mmHg 64%
    18:00 +10°C° 0 mm 3 m/S 768 mmHg 61%
    19:00 +10°C° 0 mm 3 m/S 768 mmHg 59%
    20:00 +10°C° 0 mm 3 m/S 768 mmHg 57%
    21:00 +10°C° 0 mm 3 m/S 768 mmHg 55%
    22:00 +10°C° 0 mm 3 m/S 768 mmHg 54%
    23:00 +10°C° 0 mm 3 m/S 768 mmHg 53%

    Morgen, 13 Dezember, Mittwoch

    Zeit Temperatur Niederschläge Wind Luftdruck Luftfeuchtigkeit
    00:00 +9°C° 0 mm 3 m/S 768 mmHg 52%
    01:00 +9°C° 0 mm 3 m/S 768 mmHg 51%
    02:00 +9°C° 0 mm 3 m/S 768 mmHg 51%
    03:00 +9°C° 0 mm 3 m/S 768 mmHg 50%
    04:00 +9°C° 0 mm 3 m/S 767 mmHg 50%
    05:00 +9°C° 0 mm 3 m/S 767 mmHg 50%
    06:00 +9°C° 0 mm 3 m/S 767 mmHg 50%
    07:00 +10°C° 0 mm 3 m/S 767 mmHg 50%
    08:00 +10°C° 0 mm 3 m/S 767 mmHg 51%
    09:00 +12°C° 0 mm 2 m/S 767 mmHg 51%
    10:00 +14°C° 0 mm 2 m/S 766 mmHg 54%
    11:00 +15°C° 0 mm 1 m/S 766 mmHg 58%
    12:00 +18°C° 0 mm 1 m/S 765 mmHg 61%
    13:00 +18°C° 0 mm 1 m/S 765 mmHg 62%
    14:00 +16°C° 0 mm 1 m/S 765 mmHg 62%
    15:00 +16°C° 0 mm 1 m/S 765 mmHg 63%
    16:00 +15°C° 0 mm 2 m/S 765 mmHg 62%
    17:00 +13°C° 0 mm 2 m/S 765 mmHg 60%
    18:00 +12°C° 0 mm 2 m/S 765 mmHg 59%
    19:00 +12°C° 0 mm 2 m/S 765 mmHg 57%
    20:00 +12°C° 0 mm 2 m/S 765 mmHg 55%
    21:00 +10°C° 0 mm 2 m/S 765 mmHg 53%
    22:00 +10°C° 0 mm 2 m/S 765 mmHg 52%
    23:00 +10°C° 0 mm 2 m/S 765 mmHg 50%

    übermorgen, 14 Dezember, Donnerstag

    Zeit Temperatur Niederschläge Wind Luftdruck Luftfeuchtigkeit
    00:00 +10°C° 0 mm 2 m/S 765 mmHg 49%
    01:00 +9°C° 0 mm 2 m/S 764 mmHg 47%
    02:00 +9°C° 0 mm 2 m/S 764 mmHg 46%
    03:00 +9°C° 0 mm 3 m/S 764 mmHg 44%
    04:00 +9°C° 0 mm 3 m/S 764 mmHg 43%
    05:00 +9°C° 0 mm 3 m/S 764 mmHg 43%
    06:00 +9°C° 0 mm 3 m/S 763 mmHg 42%
    07:00 +9°C° 0 mm 3 m/S 763 mmHg 43%
    08:00 +10°C° 0 mm 3 m/S 763 mmHg 44%
    09:00 +10°C° 0 mm 3 m/S 763 mmHg 44%
    10:00 +12°C° 0 mm 3 m/S 763 mmHg 47%
    11:00 +14°C° 0 mm 3 m/S 762 mmHg 50%
    12:00 +17°C° 0 mm 2 m/S 762 mmHg 54%
    13:00 +16°C° 0 mm 2 m/S 762 mmHg 55%
    14:00 +16°C° 0 mm 2 m/S 761 mmHg 57%
    15:00 +16°C° 0 mm 2 m/S 761 mmHg 59%
    16:00 +14°C° 0 mm 2 m/S 761 mmHg 57%
    17:00 +13°C° 0 mm 2 m/S 761 mmHg 55%
    18:00 +12°C° 0 mm 2 m/S 761 mmHg 53%
    19:00 +12°C° 0 mm 2 m/S 761 mmHg 51%
    20:00 +10°C° 0 mm 3 m/S 761 mmHg 49%
    21:00 +10°C° 0 mm 3 m/S 761 mmHg 47%
    22:00 +10°C° 0 mm 3 m/S 761 mmHg 47%
    23:00 +10°C° 0 mm 3 m/S 761 mmHg 46%

    15 Dezember, Freitag

    Zeit Temperatur Niederschläge Wind Luftdruck Luftfeuchtigkeit
    00:00 +10°C° 0 mm 3 m/S 761 mmHg 46%
    01:00 +10°C° 0 mm 3 m/S 761 mmHg 46%
    02:00 +10°C° 0 mm 3 m/S 761 mmHg 45%
    03:00 +10°C° 0 mm 3 m/S 761 mmHg 45%
    04:00 +10°C° 0 mm 3 m/S 761 mmHg 45%
    05:00 +10°C° 0 mm 3 m/S 761 mmHg 45%
    06:00 +8°C° 0 mm 4 m/S 761 mmHg 45%
    07:00 +10°C° 0 mm 4 m/S 762 mmHg 46%
    08:00 +10°C° 0 mm 4 m/S 762 mmHg 47%
    09:00 +11°C° 0 mm 4 m/S 763 mmHg 48%
    10:00 +12°C° 0 mm 4 m/S 763 mmHg 47%
    11:00 +14°C° 0 mm 4 m/S 763 mmHg 47%
    12:00 +15°C° 0 mm 4 m/S 763 mmHg 46%
    13:00 +15°C° 0 mm 4 m/S 763 mmHg 50%
    14:00 +14°C° 0 mm 3 m/S 763 mmHg 53%
    15:00 +14°C° 0 mm 3 m/S 763 mmHg 57%
    16:00 +13°C° 0 mm 3 m/S 763 mmHg 55%
    17:00 +12°C° 0 mm 3 m/S 764 mmHg 54%
    18:00 +10°C° 0 mm 3 m/S 764 mmHg 53%
    19:00 +10°C° 0 mm 3 m/S 765 mmHg 52%
    20:00 +10°C° 0 mm 3 m/S 765 mmHg 50%
    21:00 +10°C° 0 mm 3 m/S 765 mmHg 48%
    22:00 +10°C° 0 mm 3 m/S 765 mmHg 49%
    23:00 +10°C° 0 mm 4 m/S 765 mmHg 49%

    16 Dezember, Samstag

    Zeit Temperatur Niederschläge Wind Luftdruck Luftfeuchtigkeit
    00:00 +10°C° 0 mm 4 m/S 765 mmHg 49%
    01:00 +10°C° 0 mm 4 m/S 765 mmHg 49%
    02:00 +10°C° 0 mm 4 m/S 765 mmHg 50%
    03:00 +10°C° 0 mm 4 m/S 765 mmHg 50%
    04:00 +10°C° 0 mm 4 m/S 765 mmHg 50%
    05:00 +10°C° 0 mm 4 m/S 765 mmHg 50%
    06:00 +10°C° 0 mm 4 m/S 765 mmHg 50%
    07:00 +10°C° 0 mm 4 m/S 765 mmHg 50%
    08:00 +11°C° 0 mm 4 m/S 765 mmHg 50%
    09:00 +11°C° 0 mm 4 m/S 765 mmHg 51%
    10:00 +13°C° 0 mm 4 m/S 764 mmHg 50%
    11:00 +15°C° 0 mm 4 m/S 764 mmHg 50%
    12:00 +18°C° 0 mm 4 m/S 763 mmHg 50%
    13:00 +17°C° 0 mm 4 m/S 763 mmHg 51%
    14:00 +17°C° 0 mm 4 m/S 763 mmHg 52%
    15:00 +17°C° 0 mm 4 m/S 762 mmHg 53%
    16:00 +15°C° 0 mm 4 m/S 763 mmHg 51%
    17:00 +14°C° 0 mm 4 m/S 763 mmHg 48%
    18:00 +13°C° 0 mm 4 m/S 763 mmHg 45%
    19:00 +12°C° 0 mm 4 m/S 763 mmHg 43%
    20:00 +12°C° 0 mm 4 m/S 763 mmHg 41%
    21:00 +12°C° 0 mm 5 m/S 763 mmHg 39%
    22:00 +12°C° 0 mm 5 m/S 763 mmHg 39%
    23:00 +10°C° 0 mm 5 m/S 763 mmHg 39%

    17 Dezember, Sonntag

    Zeit Temperatur Niederschläge Wind Luftdruck Luftfeuchtigkeit
    00:00 +10°C° 0 mm 5 m/S 763 mmHg 38%
    01:00 +10°C° 0 mm 5 m/S 763 mmHg 38%
    02:00 +10°C° 0 mm 5 m/S 763 mmHg 39%
    03:00 +10°C° 0 mm 5 m/S 763 mmHg 39%
    04:00 +10°C° 0 mm 5 m/S 763 mmHg 38%
    05:00 +10°C° 0 mm 5 m/S 763 mmHg 38%
    06:00 +10°C° 0 mm 5 m/S 763 mmHg 37%
    07:00 +12°C° 0 mm 5 m/S 763 mmHg 38%
    08:00 +12°C° 0 mm 4 m/S 763 mmHg 38%
    09:00 +13°C° 0 mm 4 m/S 763 mmHg 38%
    10:00 +15°C° 0 mm 4 m/S 763 mmHg 40%
    11:00 +17°C° 0 mm 4 m/S 763 mmHg 42%
    12:00 +19°C° 0 mm 4 m/S 762 mmHg 43%
    13:00 +18°C° 0 mm 4 m/S 762 mmHg 44%
    14:00 +18°C° 0 mm 4 m/S 762 mmHg 45%
    15:00 +17°C° 0 mm 3 m/S 762 mmHg 46%
    16:00 +16°C° 0 mm 3 m/S 762 mmHg 44%
    17:00 +14°C° 0 mm 3 m/S 762 mmHg 42%
    18:00 +13°C° 0 mm 3 m/S 763 mmHg 40%
    19:00 +13°C° 0 mm 3 m/S 763 mmHg 40%
    20:00 +13°C° 0 mm 4 m/S 763 mmHg 39%
    21:00 +13°C° 0 mm 4 m/S 763 mmHg 39%
    22:00 +13°C° 0 mm 4 m/S 763 mmHg 39%
    23:00 +13°C° 0 mm 4 m/S 763 mmHg 38%
    Mehr zeigen